{"data":{"norad_id":68693,"intl_designator":"2026-080C","name":"JILIN GAOFEN OBJECT C","alt_names":[],"object_type":"PAYLOAD","status":"ACTIVE","operator":null,"country":"PRC","launch_date":"2026-04-14","launch_site_code":"JSC","launch_vehicle":null,"mission":null,"orbit_class":"UNKNOWN","rcs_meters":null,"size_class":null,"mass_kg":null,"dimensions":null,"purposes":[],"wikipedia_slug":null,"has_3d_model":false,"image_url":null,"decayed_at":null,"tle_current":{"epoch":"2026-09-20T04:23:08.666016Z","epoch_age_seconds":90621,"freshness":"FRESH","line1":"1 68693U 26080C   26263.18273919  .00002560  00000+0  16882-3 0  9997","line2":"2 68693  97.6528 338.4676 0013841  86.0568 274.2242 15.08308257 23982","mean_motion":15.08308257,"eccentricity":0.0013841,"inclination_deg":97.6528,"raan_deg":338.4676,"arg_perigee_deg":86.0568,"mean_anomaly_deg":274.2242,"bstar":0.00016882,"rev_number":2398,"period_min":95.471200486838,"perigee_km":531.79190354609,"apogee_km":550.94648058697,"semimajor_km":6919.5061920665,"source":"CELESTRAK","updated_at":"2026-09-20T09:00:24.408682Z"}}}